When you browse on this site, cookies collect data to enhance your experience and personalize the content and advertising you see.
Visit our Privacy Policy to learn more. By continuing to use the site, you agree to this use of cookies and data.
  • In Latvia
  • List of Countries
  • For 7 days
  • Water Temperature
  • Satellite Maps
  • Weather Map
  • Weather Widgets
  • user-avatar
    Login

    Hourly Weather Trypolis

    Today, 20 June, Thursday

    Time Temperature Precipitation Wind Pressure Humidity
    00:00 +29°C° 0 mm 2 mps 759 mmHg 40%
    01:00 +29°C° 0 mm 2 mps 759 mmHg 39%
    02:00 +28°C° 0 mm 2 mps 759 mmHg 40%
    03:00 +28°C° 0 mm 3 mps 759 mmHg 41%
    04:00 +28°C° 0 mm 3 mps 759 mmHg 42%
    05:00 +29°C° 0 mm 3 mps 759 mmHg 41%
    06:00 +29°C° 0 mm 3 mps 759 mmHg 39%
    07:00 +30°C° 0 mm 3 mps 759 mmHg 38%
    08:00 +33°C° 0 mm 3 mps 760 mmHg 34%
    09:00 +34°C° 0 mm 3 mps 760 mmHg 29%
    10:00 +36°C° 0 mm 3 mps 760 mmHg 25%
    11:00 +37°C° 0 mm 4 mps 760 mmHg 24%
    12:00 +37°C° 0 mm 4 mps 760 mmHg 22%
    13:00 +38°C° 0 mm 4 mps 760 mmHg 21%
    14:00 +38°C° 0 mm 4 mps 759 mmHg 21%
    15:00 +39°C° 0 mm 5 mps 759 mmHg 21%
    16:00 +39°C° 0 mm 5 mps 759 mmHg 20%
    17:00 +37°C° 0 mm 5 mps 759 mmHg 22%
    18:00 +36°C° 0 mm 5 mps 759 mmHg 24%
    19:00 +34°C° 0 mm 5 mps 759 mmHg 26%
    20:00 +34°C° 0 mm 5 mps 759 mmHg 27%
    21:00 +33°C° 0 mm 5 mps 760 mmHg 27%
    22:00 +33°C° 0 mm 5 mps 760 mmHg 28%
    23:00 +33°C° 0 mm 4 mps 760 mmHg 28%

    Tomorrow, 21 June, Friday

    Time Temperature Precipitation Wind Pressure Humidity
    00:00 +33°C° 0 mm 4 mps 760 mmHg 28%
    01:00 +31°C° 0 mm 3 mps 760 mmHg 28%
    02:00 +31°C° 0 mm 3 mps 759 mmHg 29%
    03:00 +31°C° 0 mm 3 mps 759 mmHg 29%
    04:00 +30°C° 0 mm 3 mps 759 mmHg 30%
    05:00 +31°C° 0 mm 3 mps 759 mmHg 29%
    06:00 +33°C° 0 mm 3 mps 760 mmHg 28%
    07:00 +34°C° 0 mm 4 mps 760 mmHg 27%
    08:00 +36°C° 0 mm 3 mps 760 mmHg 24%
    09:00 +38°C° 0 mm 3 mps 760 mmHg 21%
    10:00 +39°C° 0 mm 2 mps 760 mmHg 18%
    11:00 +40°C° 0 mm 3 mps 760 mmHg 18%
    12:00 +41°C° 0 mm 4 mps 760 mmHg 18%
    13:00 +42°C° 0 mm 5 mps 760 mmHg 18%
    14:00 +41°C° 0 mm 6 mps 759 mmHg 18%
    15:00 +41°C° 0 mm 6 mps 759 mmHg 18%
    16:00 +40°C° 0 mm 7 mps 759 mmHg 19%
    17:00 +39°C° 0 mm 7 mps 759 mmHg 20%
    18:00 +38°C° 0 mm 7 mps 759 mmHg 21%
    19:00 +36°C° 0 mm 7 mps 759 mmHg 22%
    20:00 +36°C° 0 mm 7 mps 759 mmHg 22%
    21:00 +35°C° 0 mm 6 mps 760 mmHg 22%
    22:00 +34°C° 0 mm 6 mps 760 mmHg 21%
    23:00 +34°C° 0 mm 5 mps 760 mmHg 21%

    Day after tomorrow, 22 June, Saturday

    Time Temperature Precipitation Wind Pressure Humidity
    00:00 +34°C° 0 mm 5 mps 760 mmHg 21%
    01:00 +33°C° 0 mm 5 mps 759 mmHg 21%
    02:00 +33°C° 0 mm 4 mps 759 mmHg 21%
    03:00 +33°C° 0 mm 4 mps 759 mmHg 20%
    04:00 +32°C° 0 mm 4 mps 759 mmHg 20%
    05:00 +34°C° 0 mm 4 mps 759 mmHg 18%
    06:00 +35°C° 0 mm 4 mps 759 mmHg 17%
    07:00 +36°C° 0 mm 4 mps 759 mmHg 16%
    08:00 +38°C° 0 mm 4 mps 760 mmHg 15%
    09:00 +39°C° 0 mm 3 mps 760 mmHg 14%
    10:00 +42°C° 0 mm 3 mps 760 mmHg 14%
    11:00 +43°C° 0 mm 4 mps 760 mmHg 14%
    12:00 +45°C° 0 mm 5 mps 760 mmHg 13%
    13:00 +46°C° 0 mm 6 mps 759 mmHg 13%
    14:00 +46°C° 0 mm 6 mps 759 mmHg 13%
    15:00 +46°C° 0 mm 7 mps 759 mmHg 13%
    16:00 +46°C° 0 mm 8 mps 758 mmHg 13%
    17:00 +44°C° 0 mm 8 mps 759 mmHg 16%
    18:00 +42°C° 0 mm 9 mps 759 mmHg 19%
    19:00 +39°C° 0 mm 10 mps 759 mmHg 21%
    20:00 +38°C° 0 mm 9 mps 760 mmHg 20%
    21:00 +38°C° 0 mm 9 mps 760 mmHg 18%
    22:00 +37°C° 0 mm 8 mps 760 mmHg 16%
    23:00 +37°C° 0 mm 8 mps 760 mmHg 16%

    23 June, Sunday

    Time Temperature Precipitation Wind Pressure Humidity
    00:00 +35°C° 0 mm 7 mps 760 mmHg 16%
    01:00 +35°C° 0 mm 7 mps 759 mmHg 16%
    02:00 +35°C° 0 mm 7 mps 759 mmHg 17%
    03:00 +35°C° 0 mm 7 mps 759 mmHg 17%
    04:00 +35°C° 0 mm 6 mps 759 mmHg 17%
    05:00 +35°C° 0 mm 5 mps 759 mmHg 16%
    06:00 +36°C° 0 mm 4 mps 759 mmHg 16%
    07:00 +37°C° 0 mm 2 mps 759 mmHg 16%
    08:00 +39°C° 0 mm 2 mps 760 mmHg 14%
    09:00 +41°C° 0 mm 2 mps 760 mmHg 13%
    10:00 +43°C° 0 mm 2 mps 760 mmHg 11%
    11:00 +44°C° 0 mm 3 mps 760 mmHg 12%
    12:00 +44°C° 0 mm 4 mps 760 mmHg 12%
    13:00 +45°C° 0 mm 5 mps 760 mmHg 12%
    14:00 +43°C° 0 mm 5 mps 759 mmHg 14%
    15:00 +42°C° 0 mm 6 mps 759 mmHg 16%
    16:00 +41°C° 0 mm 7 mps 759 mmHg 18%
    17:00 +40°C° 0 mm 8 mps 759 mmHg 22%
    18:00 +39°C° 0 mm 9 mps 759 mmHg 25%
    19:00 +37°C° 0 mm 9 mps 759 mmHg 28%
    20:00 +37°C° 0 mm 8 mps 759 mmHg 26%
    21:00 +37°C° 0 mm 8 mps 760 mmHg 24%
    22:00 +36°C° 0 mm 7 mps 760 mmHg 22%
    23:00 +36°C° 0 mm 7 mps 760 mmHg 22%

    24 June, Monday

    Time Temperature Precipitation Wind Pressure Humidity
    00:00 +35°C° 0 mm 6 mps 760 mmHg 22%
    01:00 +35°C° 0 mm 5 mps 760 mmHg 22%
    02:00 +35°C° 0 mm 5 mps 759 mmHg 21%
    03:00 +35°C° 0 mm 5 mps 759 mmHg 20%
    04:00 +35°C° 0 mm 5 mps 759 mmHg 20%
    05:00 +36°C° 0 mm 4 mps 759 mmHg 18%
    06:00 +37°C° 0 mm 4 mps 759 mmHg 17%
    07:00 +38°C° 0 mm 4 mps 759 mmHg 15%
    08:00 +41°C° 0 mm 4 mps 759 mmHg 14%
    09:00 +43°C° 0 mm 3 mps 760 mmHg 12%
    10:00 +45°C° 0 mm 3 mps 760 mmHg 10%
    11:00 +44°C° 0 mm 4 mps 760 mmHg 13%
    12:00 +43°C° 0 mm 5 mps 759 mmHg 16%
    13:00 +42°C° 0 mm 6 mps 759 mmHg 18%
    14:00 +41°C° 0 mm 6 mps 759 mmHg 19%
    15:00 +41°C° 0 mm 6 mps 759 mmHg 20%
    16:00 +40°C° 0 mm 5 mps 758 mmHg 21%
    17:00 +39°C° 0 mm 5 mps 759 mmHg 23%
    18:00 +37°C° 0 mm 5 mps 759 mmHg 24%
    19:00 +36°C° 0 mm 4 mps 759 mmHg 26%
    20:00 +36°C° 0 mm 4 mps 759 mmHg 24%
    21:00 +36°C° 0 mm 3 mps 759 mmHg 23%
    22:00 +36°C° 0 mm 3 mps 760 mmHg 22%
    23:00 +35°C° 0 mm 2 mps 759 mmHg 21%

    25 June, Tuesday

    Time Temperature Precipitation Wind Pressure Humidity
    00:00 +35°C° 0 mm 2 mps 759 mmHg 21%
    01:00 +33°C° 0 mm 1 mps 759 mmHg 21%
    02:00 +32°C° 0 mm 2 mps 759 mmHg 25%
    03:00 +33°C° 0 mm 3 mps 759 mmHg 29%
    04:00 +32°C° 0 mm 4 mps 759 mmHg 34%
    05:00 +32°C° 0 mm 4 mps 759 mmHg 35%
    06:00 +31°C° 0 mm 3 mps 759 mmHg 37%
    07:00 +31°C° 0 mm 3 mps 759 mmHg 39%
    08:00 +34°C° 0 mm 2 mps 759 mmHg 36%
    09:00 +35°C° 0 mm 2 mps 760 mmHg 33%
    10:00 +36°C° 0 mm 2 mps 760 mmHg 30%
    11:00 +36°C° 0 mm 3 mps 760 mmHg 31%
    12:00 +36°C° 0 mm 4 mps 760 mmHg 32%
    13:00 +36°C° 0 mm 4 mps 760 mmHg 33%
    14:00 +36°C° 0 mm 4 mps 760 mmHg 34%
    15:00 +35°C° 0 mm 4 mps 759 mmHg 36%
    16:00 +35°C° 0 mm 4 mps 759 mmHg 37%
    17:00 +34°C° 0 mm 5 mps 760 mmHg 42%
    18:00 +33°C° 0 mm 5 mps 760 mmHg 47%
    19:00 +32°C° 0 mm 5 mps 760 mmHg 52%
    20:00 +30°C° 0 mm 5 mps 760 mmHg 52%
    21:00 +30°C° 0 mm 5 mps 760 mmHg 52%
    22:00 +29°C° 0 mm 6 mps 761 mmHg 51%
    23:00 +29°C° 0 mm 5 mps 761 mmHg 53%
    Show more